Wind_Speed
9 11 11 13 13 13 13 15 16 17 19 19 20 21 21 22 21 22 23 16 15 14 9 4 7 7 4 7 7 22 24 22 14 14 9 6 5 2 6 5 12 21 19 22 22 19 16
9 10 11 12 13 13 13 15 16 18 19 20 21 22 23 24 21 23 19 13 15 16 13 14 12 7 3 10 17 21 24 21 22 11 8 7 4 6 7 10 13 11 15 17 15 15 16
9 11 11 11 12 13 14 15 16 18 20 21 22 23 24 25 21 23 14 12 14 14 15 13 9 7 23 9 22 30 30 21 19 14 3 11 10 4 6 11 8 9 13 14 11 8 10
8 9 11 11 11 13 14 15 17 18 20 22 23 22 24 24 20 22 10 13 10 9 9 8 6 5 6 24 21 37 38 27 22 14 8 10 8 4 3 6 7 11 8 6 3 7 6
6 8 9 11 11 12 14 16 17 19 20 22 23 22 23 23 21 23 4 15 18 6 6 9 5 5 4 21 28 32 36 21 24 19 11 6 1 1 5 5 5 4 11 10 10 13 13
6 7 8 9 11 13 14 16 17 19 21 22 23 21 21 21 20 26 7 6 16 24 7 4 20 7 7 8 14 31 37 24 8 13 6 3 1 1 7 5 7 7 8 11 14 10 15
5 6 7 9 10 12 14 16 18 19 21 23 22 20 19 17 16 25 9 2 5 6 21 10 4 6 5 17 19 18 33 13 9 8 8 8 7 5 6 4 5 6 4 8 10 6 8
5 5 6 7 10 12 14 16 18 19 21 22 21 20 19 15 10 18 20 5 2 2 6 11 6 4 6 6 8 18 26 7 8 12 9 7 6 3 6 10 10 10 3 5 5 14 8
5 5 6 6 9 12 13 15 17 19 20 22 20 21 19 10 6 8 24 8 2 2 5 3 4 6 12 4 10 15 8 7 6 13 11 4 6 10 10 7 12 8 2 7 8 7 5
4 5 6 6 8 11 13 15 17 18 20 22 17 20 17 6 3 8 6 10 3 3 4 8 7 7 15 4 7 21 17 4 9 8 8 5 13 12 7 6 12 7 6 7 11 7 3
4 4 6 6 7 10 12 14 16 19 21 21 16 16 11 14 3 5 9 2 4 0 4 5 5 9 8 9 5 11 22 7 9 10 7 7 8 12 8 9 11 8 14 7 12 12 4
3 3 5 5 7 9 12 14 16 19 21 19 10 13 14 5 8 10 7 5 1 3 1 5 3 7 6 6 7 6 8 6 3 4 8 5 5 6 2 16 12 11 7 13 6 3 0
4 3 5 5 7 9 11 13 17 19 20 17 4 12 10 11 7 10 2 1 4 6 4 6 4 6 5 6 6 11 5 12 5 5 8 5 8 7 2 16 11 5 6 4 4 3 2
5 3 5 6 7 9 11 14 17 19 19 16 3 1 15 11 13 8 2 5 9 4 3 3 4 7 4 8 5 10 9 3 10 5 2 5 7 9 17 5 8 12 2 3 4 6 7
6 4 5 5 8 9 12 15 17 19 19 12 1 2 11 21 21 2 5 7 2 1 2 5 6 5 5 7 5 8 7 6 7 8 3 3 4 18 16 11 7 6 5 4 4 3 1
7 5 7 5 7 9 12 15 17 19 16 6 0 1 10 23 14 7 5 5 3 3 2 3 4 4 5 6 7 7 3 8 6 8 2 4 7 7 9 7 9 6 5 5 4 3 4
9 6 6 5 7 9 12 15 18 18 13 2 0 3 16 17 10 6 4 4 5 3 3 4 2 3 4 3 3 5 5 6 9 7 5 4 3 7 6 7 5 6 5 4 2 1 2
9 8 5 4 5 9 12 14 17 17 12 2 3 2 19 10 4 3 3 5 2 2 6 6 4 4 2 3 3 4 3 5 10 5 2 2 1 4 3 7 13 9 4 3 3 6 2
11 10 5 3 3 8 11 13 15 13 10 3 3 0 11 6 4 2 3 4 3 3 5 3 3 5 4 2 2 3 5 4 9 8 6 4 2 3 1 5 1 5 6 4 3 2 2
14 11 5 2 3 7 11 12 13 9 4 1 3 2 4 4 2 7 6 2 4 4 5 4 4 5 5 4 3 2 5 4 5 9 13 3 0 3 3 2 2 3 8 9 3 1 4
16 11 6 3 3 7 10 12 12 6 1 3 3 1 1 2 3 5 5 1 3 2 4 5 4 4 3 0 4 2 4 5 4 10 5 4 2 2 0 3 4 3 5 5 3 2 3
16 11 8 5 3 7 10 10 11 2 3 4 3 4 3 3 4 7 3 1 3 3 4 2 5 1 1 5 5 4 2 0 1 6 5 5 3 2 1 3 3 2 3 3 1 2 2
16 12 8 6 4 7 6 8 9 1 2 4 3 6 4 2 4 4 3 4 4 5 4 5 5 3 3 4 1 3 4 3 4 3 2 3 1 3 3 4 2 5 4 2 4 2 5
16 13 9 7 5 5 3 6 6 2 4 5 4 6 4 1 3 3 4 3 5 3 7 2 5 5 2 2 9 7 5 4 5 3 2 2 3 1 2 3 3 5 4 4 5 8 6
17 12 10 7 5 2 1 3 5 2 6 16 7 4 3 3 5 5 7 5 5 4 2 3 2 3 3 3 3 3 2 5 3 4 2 3 4 2 2 2 4 4 2 1 4 6 5
17 14 11 8 6 5 4 2 4 7 8 12 11 7 5 7 4 2 4 3 4 3 3 3 2 1 2 2 2 3 2 3 4 7 3 4 5 4 4 3 3 5 3 4 4 4 5
20 15 11 8 7 7 7 3 3 4 7 5 7 7 7 4 2 2 3 5 5 3 3 2 1 2 3 2 2 2 2 4 1 1 3 4 4 3 1 1 7 5 5 4 6 5 5
19 15 12 10 9 9 7 6 6 7 8 4 8 5 4 3 2 2 1 4 3 1 4 4 3 3 2 2 3 3 3 4 2 3 4 4 3 2 2 3 5 7 3 5 5 3 5
18 15 13 12 11 9 8 9 7 6 5 7 6 15 14 12 3 4 7 5 1 3 5 0 4 3 4 3 1 3 1 2 3 2 2 2 5 3 7 5 4 8 7 6 6 6 5
Wind_Direction
15 9 8 7 6 10 6 2 360 359 358 356 355 354 354 354 352 352 352 7 6 359 357 21 142 133 110 70 51 2 353 359 354 337 201 211 237 255 243 242 235 249 256 255 260 263 261
6 6 10 6 6 5 5 1 0 359 357 355 356 357 359 360 0 358 2 19 20 32 43 89 112 104 47 75 17 6 356 356 359 353 323 223 237 237 274 257 255 281 288 280 274 277 280
9 4 4 10 2 2 2 1 360 358 356 356 357 359 1 2 5 5 14 34 42 52 71 80 87 73 61 32 23 11 2 355 344 329 278 300 314 318 321 315 280 317 308 307 307 297 266
14 9 359 2 8 360 0 360 359 360 359 359 -0 1 3 2 8 7 42 51 40 59 65 52 36 48 99 33 14 14 3 2 4 355 262 276 302 321 259 276 300 297 282 299 327 335 290
13 9 8 359 2 1 0 359 359 359 360 3 3 4 4 5 13 8 58 65 34 67 57 34 341 100 43 1 24 10 6 341 338 337 315 243 83 247 316 284 298 230 283 299 328 344 343
6 8 9 3 359 2 0 360 358 358 2 4 4 4 3 7 14 15 51 127 62 41 25 43 26 74 20 4 21 14 3 8 349 348 25 34 147 358 9 345 308 347 327 319 331 349 337
3 11 8 9 359 2 359 359 358 359 2 3 2 3 360 6 20 25 44 76 22 12 51 82 86 101 310 354 35 12 1 351 6 39 25 329 62 30 347 333 280 302 266 271 313 307 3
344 10 11 11 1 360 1 357 357 358 1 1 359 360 357 1 30 31 56 68 87 163 74 90 78 81 344 62 22 6 13 46 35 29 2 11 71 1 9 22 19 15 343 338 318 336 315
330 358 353 17 5 358 0 356 357 357 359 -0 359 359 356 355 66 26 61 48 87 156 103 68 84 22 349 35 38 355 23 346 31 17 352 65 5 357 349 24 9 352 286 307 277 305 267
308 359 333 7 8 359 355 357 354 353 356 357 358 3 4 12 87 15 61 352 126 159 92 345 0 4 5 30 36 342 346 31 20 7 355 14 334 346 359 23 7 324 309 329 330 341 258
295 344 320 353 1 354 355 356 353 353 353 355 358 4 20 40 54 50 317 44 113 95 27 347 18 322 30 70 272 345 1 60 49 26 47 306 341 343 38 7 337 258 313 303 302 285 286
276 298 318 339 354 351 353 354 351 350 349 354 7 17 30 22 33 355 351 127 173 58 299 353 53 341 29 31 353 317 45 28 53 46 9 304 311 359 30 351 305 310 328 317 287 198 70
251 293 302 332 341 350 349 350 348 346 346 348 347 31 37 24 336 342 119 103 49 75 343 360 334 340 26 13 348 6 45 47 49 16 8 337 319 335 29 345 323 1 346 334 322 350 1
239 270 295 318 339 348 350 348 346 344 346 342 260 12 16 14 3 343 157 58 68 58 2 22 320 321 58 13 6 352 356 79 31 56 339 9 332 360 320 283 282 297 205 234 277 305 293
229 246 273 311 340 347 350 346 344 347 346 340 201 285 355 356 351 13 72 53 111 69 359 330 332 42 350 11 0 8 8 33 38 38 99 342 258 312 308 315 1 328 333 290 300 268 321
212 239 258 316 332 344 347 342 346 350 348 341 253 295 358 350 8 76 71 106 104 63 357 8 51 45 6 5 11 8 11 21 360 17 41 266 303 283 312 347 21 52 345 25 355 340 307
204 216 251 308 322 347 344 344 348 351 350 312 263 52 350 358 40 52 89 98 120 72 74 74 44 349 57 3 305 334 19 77 1 334 331 339 141 296 344 24 354 3 14 353 183 84 272
205 225 233 291 320 349 345 349 351 355 355 20 61 46 354 27 54 55 75 130 99 26 32 50 75 77 57 339 325 14 71 34 335 355 6 272 209 288 336 105 92 68 15 95 98 325 317
209 206 212 272 317 343 345 351 353 2 9 8 93 221 357 32 112 90 101 83 93 65 62 60 64 68 22 326 38 24 18 58 24 18 356 351 331 315 280 174 100 58 30 345 268 206 245
196 197 210 239 318 339 340 348 350 2 8 88 84 59 352 34 60 111 116 106 126 51 77 69 101 70 37 10 27 307 351 11 351 12 10 31 20 168 245 271 336 16 10 357 329 49 318
195 191 203 227 302 329 334 345 345 359 35 103 50 192 199 112 34 86 87 75 121 96 45 43 86 80 158 73 349 10 26 323 27 1 20 72 184 126 239 112 85 76 4 11 48 242 195
188 188 201 224 286 310 330 345 341 14 108 86 123 126 21 94 93 86 68 230 128 98 90 110 112 341 288 145 171 226 36 154 257 325 25 3 282 83 218 153 128 148 0 337 27 326 321
185 188 189 216 270 302 337 341 349 99 158 112 126 97 102 171 127 93 206 163 130 113 27 94 155 108 102 126 163 169 127 98 166 154 331 69 82 44 291 216 112 356 243 277 292 200 163
183 180 183 210 260 293 350 343 4 31 199 142 142 120 91 173 99 147 137 115 119 107 159 242 112 114 154 77 97 68 60 73 57 329 143 106 77 98 218 41 7 244 205 196 236 246 228
178 175 185 209 247 229 163 13 48 52 165 150 117 111 117 115 128 112 121 116 86 40 128 135 107 141 137 98 73 28 350 15 298 234 287 125 115 1 118 194 296 317 233 138 104 284 212
171 178 191 211 219 172 169 103 87 97 138 145 105 103 102 124 229 102 130 135 152 163 8 135 94 104 122 120 101 140 215 212 296 335 135 80 84 108 33 115 214 236 225 150 109 313 216
175 180 200 199 181 172 173 160 132 130 146 137 96 112 96 108 280 99 158 169 142 106 143 141 308 35 83 101 87 140 245 168 267 183 315 350 354 122 358 223 289 229 158 117 68 248 206
169 182 194 179 176 168 159 165 156 141 142 130 92 114 107 98 6 57 150 134 96 122 148 215 69 350 43 83 131 214 126 225 90 215 187 178 131 225 75 54 304 152 79 153 210 258 200
175 189 180 177 170 166 159 150 163 151 139 130 98 94 93 78 145 106 89 79 94 174 129 228 156 159 180 90 33 99 121 100 157 269 354 326 185 192 176 218 232 205 203 218 180 197 222
Height
820 819 817 815 813 810 808 805 802 799 796 793 789 784 781 776 773 770 765 761 759 755 753 752 754 756 758 761 771 769 764 759 755 754 754 755 756 756 758 750 751 748 741 739 738 739 737
821 819 816 815 813 811 808 805 802 799 796 793 788 783 779 775 772 768 764 762 760 756 754 753 755 758 759 771 775 770 765 758 756 755 754 755 754 753 755 753 752 742 740 737 734 734 732
820 821 818 814 814 812 808 805 802 799 796 792 788 783 778 775 771 768 764 762 761 760 759 759 759 759 762 778 774 770 764 760 756 754 753 752 753 754 753 752 744 743 744 739 739 736 734
818 817 819 817 813 812 809 806 802 799 795 791 787 783 779 775 772 768 765 763 762 761 761 761 761 761 772 776 773 767 762 756 753 751 751 750 751 751 751 748 747 748 745 745 733 734 733
816 817 815 816 814 811 809 805 802 799 795 791 787 783 779 775 772 768 764 763 762 761 762 762 762 761 777 776 770 772 766 762 754 750 747 749 750 754 753 755 756 750 748 748 748 741 741
817 816 815 815 814 811 809 805 802 798 795 791 787 783 779 775 773 768 763 764 764 763 763 764 767 772 781 783 780 774 768 761 758 753 748 751 754 757 768 761 756 774 774 766 767 767 755
815 814 815 814 813 811 808 805 802 798 795 791 787 784 780 776 774 769 764 764 769 774 773 782 788 786 787 782 781 777 771 766 765 766 777 766 782 793 784 779 782 783 783 779 765 760 770
816 813 813 812 813 811 807 805 802 798 795 791 787 784 779 776 774 771 767 771 779 781 787 784 786 786 784 783 781 779 777 776 777 783 778 784 790 779 776 779 784 789 799 790 770 764 759
816 813 813 810 810 810 807 804 801 798 795 791 787 783 779 774 773 772 772 778 779 780 785 787 786 786 784 782 788 786 782 781 782 786 784 788 786 776 775 782 783 788 798 787 788 769 762
815 812 813 810 808 808 806 803 801 797 794 790 786 783 778 773 775 775 777 779 778 779 791 798 792 792 789 782 793 787 783 786 791 794 790 789 785 781 782 786 788 794 779 777 775 784 789
813 811 812 810 807 807 805 802 800 796 794 790 787 783 779 775 777 779 781 778 778 780 782 799 797 795 794 796 801 793 788 788 797 797 803 805 795 790 789 791 789 795 776 777 773 775 781
811 810 810 809 807 806 804 801 798 795 793 790 787 784 781 780 779 780 778 778 779 774 828 809 803 805 803 802 801 796 799 791 796 800 801 802 792 790 787 792 784 778 780 775 772 781 820
808 809 810 808 807 804 803 800 797 794 792 789 788 785 782 782 783 779 777 779 779 805 807 818 816 811 808 809 807 804 808 813 818 822 817 809 804 795 794 802 786 785 795 806 796 793 784
807 807 809 808 806 804 802 799 796 793 790 788 786 785 784 782 780 778 777 783 808 816 822 816 815 812 813 815 813 813 815 819 823 825 830 829 816 807 797 805 799 787 790 801 815 783 789
805 805 807 806 805 803 802 799 795 792 789 786 785 784 783 780 776 774 782 815 825 824 821 824 819 821 827 822 822 824 824 826 829 833 854 850 824 806 801 794 794 791 790 787 786 794 797
801 804 806 803 804 802 801 798 794 791 788 786 785 784 782 779 774 774 796 815 825 820 821 821 831 828 835 838 837 836 827 836 834 834 832 840 852 811 800 797 800 804 812 810 805 834 821
800 800 803 801 804 801 799 797 793 790 787 786 785 789 784 780 777 790 820 823 821 819 820 825 830 832 839 844 841 839 842 842 839 835 833 834 849 822 807 827 832 821 838 838 845 837 810
798 800 800 800 802 800 798 795 792 788 786 785 785 795 786 781 800 815 826 821 818 821 820 824 827 835 839 843 847 837 842 844 843 842 848 838 849 840 826 835 835 840 855 879 858 845 846
795 798 797 797 800 799 798 794 791 789 787 786 794 796 788 784 811 821 820 820 822 824 827 829 834 837 845 844 871 842 847 846 845 844 846 843 849 851 829 832 831 848 857 860 857 861 870
794 794 795 796 798 797 796 793 791 789 788 788 794 804 800 798 806 817 825 825 828 826 830 829 838 843 849 854 851 867 850 845 847 847 839 843 861 853 846 848 857 870 863 864 859 867 877
791 791 793 794 795 796 794 792 790 789 788 788 797 811 806 818 818 822 825 826 830 832 834 837 845 850 867 882 862 859 857 854 852 854 852 861 884 862 866 874 867 874 875 872 874 882 877
788 788 791 792 794 794 793 790 789 788 788 789 801 807 812 822 819 826 829 837 831 836 843 843 857 855 854 881 873 889 869 867 876 865 868 877 880 873 876 874 869 889 884 883 876 882 891
783 786 788 791 792 793 791 789 788 787 788 790 793 797 804 816 822 835 839 832 834 840 846 845 858 860 861 858 861 864 867 871 878 880 888 902 904 897 890 866 875 904 903 887 883 892 906
780 783 786 789 790 791 790 789 787 787 786 787 790 794 811 830 824 823 828 829 834 838 854 851 850 865 858 858 862 868 874 878 883 888 885 905 916 901 889 890 915 885 898 895 893 890 899
778 780 785 786 789 790 789 788 788 786 785 786 789 792 805 833 822 828 830 835 842 848 852 846 849 853 854 859 874 882 875 880 881 885 886 895 916 908 897 899 892 887 890 898 906 891 902
774 778 782 785 787 789 789 788 788 788 788 788 791 793 798 816 831 826 837 840 854 861 859 846 851 851 853 862 869 883 884 881 888 880 872 890 909 902 928 911 898 884 892 905 912 897 887
771 775 780 783 786 788 788 788 789 789 790 790 793 794 797 823 831 831 839 842 843 853 857 850 856 855 854 878 886 892 886 899 898 895 891 905 922 911 924 936 901 892 891 902 902 882 877
770 773 778 781 784 787 787 788 789 790 790 791 795 796 797 820 832 832 833 836 841 846 851 854 857 860 866 872 873 878 900 896 903 906 906 900 916 914 941 937 893 881 892 889 873 879 875
768 772 776 780 784 785 786 788 789 790 791 792 795 798 797 807 831 832 833 833 834 835 841 852 851 860 860 869 879 884 882 901 906 897 903 898 892 899 890 879 877 875 865 864 866 865 866